Starlink 3619

operational
NORAD ID: 51787 Int'l Des: 2022-017 Owner: SPXS Country: US Constellation: starlink
LEOCIRCULAR

Starlink 3619について

説明を読み込み中...

リアルタイム位置

3D地球を読み込み中...

次回通過

高度履歴

Altitude vs Time

uPlot chart will show altitude changes over time

軌道要素

1 51787U 22017V 25353.25601173 .00002408 00000-0 16936-3 0 9995
2 51787 53.2197 350.2036 0001345 90.4381 269.6765 15.08827680210137
Epoch: Dec 19, 2025 • Age: 19 hours

現在のステータス

高度 558.6 km
速度 7.58 km/s
衛星直下点 -51.55°S, 175.18°E
打ち上げ日 Feb 25, 2022
運用期間 3.8 years
タイプ internet

技術仕様

分類 Payload
質量 297.00 kg
乾燥質量 275.00 kg
総質量 297.00 kg
長さ 0.20 m
直径 2.80 m
スパン 9.00 m
形状 Box + pan
製造者 SPXS
バスタイプ Starlink
フェーズステータス In Orbit
所有者/国 SPXS/US

大規模コンステレーション

Loading constellations...